Location: The Saddle
(36.8333°N, 80.3417°W)
Time: 17:16:52
(UTC-05:00)

A-11 Canister half - Pass Details

Date: 15 December 2023
Orbit: 1526 x 1682 km, 47.3° (Epoch: 01 March)

Event Time Altitude Azimuth Distance (km) Brightness Sun altitude
Rises 23:41:44 0° 301° (WNW) 4,926 - -74.5°
Reaches altitude 10° 23:45:03 10° 296° (WNW) 3,924 - -74.8°
Maximum altitude 23:54:29 48° 226° (SW) 2,040 - -75.6°
Drops below altitude 10° 00:03:40 10° 156° (SSE) 3,806 - -76.2°
Sets 00:06:51 0° 150° (SSE) 4,767 - -76.3°
